Вернуться в каталог

STARLINK-1263

АктивенСвязьVLEO
NORAD 45405·PAYLOAD·🇺🇸 United States

Запущен Mar 18, 2020 с Cape Canaveral Space Force Station

Loading…

Ближайшие Пролёты (ближайшие 24 часа)

TLE

СвежийSource: CelesTrak SupGP

Эпоха: Sep 14, 2026, 20:57 UTC

1 45405C 20019AX  26257.87340278 -.00002847  00000+0 -61850-4 0  2574
2 45405  53.1524 323.0445 0003500  34.6672 334.1892 15.43761267    10

Отслеживайте STARLINK-1263 в реальном времени с AllMySat

Download on the App Store